sat.trackr.live / text

‹ back to catalog

STARLINK-5074

NORAD 55438 · 2023-014AZ

PAYLOAD ACTIVE UNKNOWN

§ Identity

Operator
Country
US
Launch date
2023-01-31
Launch site
AFWTR
Launch vehicle
Mass (kg)
RCS (m²)

Purposes: comms

External: N2YO · Heavens-Above · Gunter

§ Orbital elements

Epoch: 2026-05-25T05:17:13.335936Z

Period
96.11 min
Inclination
69.9996°
Eccentricity
0.0003448
Mean motion
14.98327584 rev/d
Perigee alt
569.7 km
Apogee alt
574.5 km
Semi-major
6,950.2 km
B*
8.1657e-6
RAAN
231.3180°
Arg perigee
271.4301°
Mean anomaly
88.6463°
Rev number
18,352

§ Raw data

STARLINK-50741 55438U 23014AZ  26145.22029324  .00000004  00000+0  81657-5 0  99922 55438  69.9996 231.3180 0003448 271.4301  88.6463 14.98327584183525

JSON: /api/v1/satellites/55438 · /tle

For live sub-satellite position, see the globe view (requires WebGL).

§ Visibility from observer

Set your observer location to see the next 7 days of passes ≥ 10°. The values pass through the URL so the page stays shareable.

No JS? Fill the form by hand. The geolocation button needs JavaScript.